Zurück zum Katalog

SL-8 R/B

AktivLEO
NORAD 17146·ROCKET BODY·🇷🇺 Russia

Gestartet Nov 21, 1986 von Plesetsk Cosmodrome

Loading…

Nächste Überflüge (nächste 24 Stunden)

TLE

AktuellSource: Space-Track

Epoche: Sep 14, 2026, 21:25 UTC

1 17146U 86092J   26257.89282534  .00000052  00000-0  60263-3 0  9994
2 17146  74.0146  46.8088 0124416   3.5014 164.5196 12.23672463778682

Verfolge SL-8 R/B in Echtzeit mit AllMySat

Download on the App Store